CDT,Max TemperatureF,Mean TemperatureF,Min TemperatureF,Max Dew PointF,MeanDew PointF,Min DewpointF,Max Humidity, Mean Humidity, Min Humidity, Max Sea Level PressureIn, Mean Sea Level PressureIn, Min Sea Level PressureIn, Max VisibilityMiles, Mean VisibilityMiles, Min VisibilityMiles, Max Wind SpeedMPH, Mean Wind SpeedMPH, Max Gust SpeedMPH,PrecipitationIn, CloudCover, Events, WindDirDegrees
2013-7-1,84,70,55,56,52,49,86,59,31,30.19,30.16,30.13,10,8,7,17,9,22,0.00,1,,16
2013-7-2,83,70,57,57,54,50,86,60,34,30.15,30.11,30.05,10,9,5,17,7,22,0.00,1,,6
2013-7-3,83,69,55,56,54,51,86,60,34,30.06,30.01,29.94,10,9,6,12,4,15,0.00,1,,125
2013-7-4,87,73,58,57,54,50,87,58,28,29.97,29.93,29.88,10,10,8,22,11,29,0.00,0,,189
2013-7-5,89,78,67,63,58,55,68,51,34,29.90,29.86,29.82,10,10,8,23,14,30,T,1,,183
2013-7-6,91,81,70,65,61,58,70,54,38,29.87,29.83,29.78,10,10,9,25,14,32,0.00,1,,176
2013-7-7,89,79,68,72,66,62,84,67,50,29.96,29.86,29.82,9,8,2,24,6,32,T,2,Rain-Thunderstorm,213
2013-7-8,89,79,68,71,68,64,97,72,46,30.01,29.95,29.89,10,8,3,8,4,12,0.00,1,,80
2013-7-9,88,78,68,72,68,63,87,71,55,29.97,29.90,29.84,10,10,6,28,10,40,0.00,2,Rain,270
2013-7-10,80,70,59,65,57,52,87,63,39,30.09,30.05,29.97,10,9,7,18,7,23,0.00,0,,360
2013-7-11,84,70,55,59,56,53,93,67,40,30.12,30.06,29.98,10,8,4,17,9,24,0.00,0,,169
2013-7-12,87,76,64,63,60,56,78,61,43,30.01,29.96,29.90,10,10,9,25,16,32,0.00,0,,171
2013-7-13,81,74,67,66,62,60,81,71,60,30.05,29.97,29.92,10,10,9,29,14,35,0.00,3,Thunderstorm,160
2013-7-14,84,75,65,64,61,58,81,64,47,30.18,30.10,30.03,10,10,10,18,10,24,0.00,2,,161
2013-7-15,86,74,61,69,64,58,93,71,48,30.24,30.19,30.14,10,9,4,15,7,21,0.00,1,,160
2013-7-16,89,78,67,70,67,65,97,71,44,30.24,30.20,30.17,10,9,4,13,7,18,0.00,0,,200
2013-7-17,92,80,67,70,67,64,93,69,44,30.27,30.22,30.14,10,10,8,14,6,18,0.00,0,,211
2013-7-18,91,81,70,69,67,67,84,66,47,30.14,29.99,29.84,10,10,9,22,13,32,0.00,0,,207
2013-7-19,84,73,61,68,62,57,84,62,40,29.94,29.86,29.78,10,10,10,20,10,29,0.00,1,Thunderstorm,297
2013-7-20,82,70,58,66,60,55,90,69,47,29.98,29.93,29.88,10,10,9,7,3,10,0.00,0,,277
2013-7-21,85,75,65,66,62,57,87,64,40,29.92,29.85,29.78,10,10,9,13,5,17,0.00,2,,169
2013-7-22,90,76,62,71,65,57,100,74,47,29.88,29.76,29.70,10,7,0,20,11,25,0.00,3,Fog,224
2013-7-23,74,65,56,57,55,53,87,70,53,30.03,29.97,29.87,10,10,8,16,6,22,T,0,Rain,359
2013-7-24,80,66,52,60,55,49,93,69,45,30.08,30.04,30.00,10,10,10,13,4,23,0.00,2,,284
2013-7-25,85,71,56,68,63,54,100,79,58,30.02,29.97,29.92,10,8,1,22,7,25,0.50,3,Rain-Thunderstorm,198
2013-7-26,71,61,51,63,55,50,100,79,57,30.11,30.04,29.94,10,9,2,22,11,29,0.01,3,,320
2013-7-27,68,58,48,51,47,43,100,71,42,30.12,30.07,30.00,10,10,10,18,9,24,0.00,4,,326
2013-7-28,73,59,45,54,48,44,100,72,44,30.09,30.04,30.01,10,10,10,16,6,22,0.00,0,,325
2013-7-29,76,60,44,58,52,43,100,73,46,30.12,30.09,30.06,10,10,10,16,7,21,T,2,,168
2013-7-30,75,67,59,66,63,58,100,85,69,30.11,30.09,30.06,10,8,1,7,3,9,0.00,7,,131
2013-7-31,79,68,57,66,59,57,100,75,50,30.13,30.09,30.04,10,6,0,13,6,16,0.00,2,Fog,303